星链-36692(STARLINK-36692)

导读 | 豆包AI

STARLINK-36692是美国于2026年2月11日发射的星链卫星,星链计划是SpaceX打造的低轨卫星互联网星座,通过数千颗卫星组成网络,为全球提供高速互联网服务,这颗卫星将进一步扩充星链星座规模,助力提升星座覆盖能力与服务稳定性。

基本信息
目录编号:
67744
目录名称:
STARLINK-36692
国际标识:
2026-026Z
轨道中心:
EARTH
卫星名称:
星链-36692
卫星全名:
星链-36692(STARLINK-36692)
卫星状态:
在轨 (已飞行103 天)
发射日期:
2026-02-11 UTC
国别 :
美国 (US)
星等 :
--
轨道信息
数据来源 国际轨道数据
星历时间: 2026-05-25T10:58:27+0800
9小时前
查看轨道信息
半长轴: 6843.653km
偏心率: 0.0000926
轨道倾角: 97.285°
近地点辐角 100.036°
升交点赤经 198.710°
平近点角 260.099°
近地点: 464.882km
远地点: 466.15km
周期: 93.906分钟
每日圈数: 15.334543
详细信息
固有亮度:
5
最大亮度:
2.5
卫星平台:
Starlink V1.0
覆盖范围:
全球
运营商:
太空探索技术公司
运营商所在国:
美国
制造商(研发单位):
太空探索技术公司
制造商所在国:
美国
使用方式:
暂无
卫星简介
Starlink 计划是 SpaceX 推出的全球卫星互联网项目,通过发射低轨道卫星,为全球尤其是偏远地区提供高速、低延迟的互联网服务。自 2019 年起,Starlink 已部署数千颗卫星,旨在缩小全球数字鸿沟,推动互联网普及。该项目还为军事、航空等行业提供通信支持,带来广泛经济效益。
2D轨道图
3D轨道图
轨道高度分析图
轨道倾角分析图
轨道综合分析图
查看轨道综合分析图